This is the latest recevied weather packets stored in our database for station/object MIDVIL-WX. If no packets are shown the sender has not sent any weather packets the latest 10 day(s).
| Time | Temp. | Humidity | Pressure | Rain* | Wind** | Luminosity | Snow |
|---|---|---|---|---|---|---|---|
| 1777868125 | 8.33° C | 78% | 980.2 hPa | 0 mm | - | - | - |
| 1777867260 | 8.33° C | 78% | 980.2 hPa | 0 mm | - | - | - |
| 1777866325 | 8.33° C | 76% | 980.7 hPa | 0 mm | - | - | - |
| 1777865446 | 8.33° C | 77% | 981 hPa | 0 mm | - | - | - |
| 1777864527 | 8.33° C | 77% | 981 hPa | 0 mm | - | - | - |
| 1777863655 | 8.33° C | 77% | 981 hPa | 0 mm | - | - | - |
| 1777862725 | 8.33° C | 73% | 980.9 hPa | 0 mm | - | - | - |
| 1777861841 | 8.89° C | 75% | 981.1 hPa | 0 mm | - | - | - |
| 1777860925 | 8.89° C | 75% | 981.1 hPa | 0 mm | - | - | - |
| 1777860054 | 8.89° C | 75% | 981.1 hPa | 0 mm | - | - | - |
| 1777859125 | 8.89° C | 73% | 981.7 hPa | 0 mm | - | - | - |
| 1777858244 | 9.44° C | 73% | 981.7 hPa | 0 mm | - | - | - |
| 1777857325 | 9.44° C | 73% | 981.7 hPa | 0 mm | - | - | - |
| 1777856454 | 9.44° C | 73% | 981.7 hPa | 0 mm | - | - | - |
| 1777855525 | 9.44° C | 67% | 982.2 hPa | 0 mm | - | - | - |
| 1777854644 | 10° C | 70% | 982.5 hPa | 0 mm | - | - | - |
| 1777853725 | 10.56° C | 70% | 982.5 hPa | 0 mm | - | - | - |
| 1777852856 | 11.11° C | 70% | 982.5 hPa | 0 mm | - | - | - |
| 1777851926 | 11.67° C | 62% | 983.4 hPa | 0 mm | - | - | - |
| 1777851045 | 11.67° C | 59% | 982.7 hPa | 0 mm | - | - | - |
| 1777850126 | 12.78° C | 59% | 982.8 hPa | 0 mm | - | - | - |
| 1777849250 | 12.78° C | 59% | 982.8 hPa | 0 mm | - | - | - |
| 1777848326 | 12.78° C | 58% | 983.4 hPa | 0 mm | - | - | - |
| 1777847445 | 13.33° C | 57% | 983.6 hPa | 0 mm | - | - | - |
| 1777846526 | 12.78° C | 57% | 983.6 hPa | 0 mm | - | - | - |
* Rain latest hour (hover to see other rain measurements)
** Current wind speed in m/s (hover to see current wind gust speed)